This is the latest recevied weather packets stored in our database for station/object CQ0XPG-11. If no packets are shown the sender has not sent any weather packets the latest 10 day(s).
| Time | Temp. | Humidity | Pressure | Rain* | Wind** | Luminosity | Snow |
|---|---|---|---|---|---|---|---|
| 1777709161 | 12.78° C | 100% | 1007.1 hPa | 0 mm | - | - | - |
| 1777707010 | 10° C | 100% | 1006.7 hPa | 0 mm | - | - | - |
| 1777704894 | 9.44° C | 100% | 1006.9 hPa | 0 mm | - | - | - |
| 1777704575 | 8.89° C | 100% | 1006.9 hPa | 0 mm | - | - | - |
| 1777703369 | 8.89° C | 100% | 1007 hPa | 0 mm | - | - | - |
| 1777703064 | 8.89° C | 100% | 1006.8 hPa | 0 mm | - | - | - |
| 1777702740 | 8.89° C | 100% | 1006.8 hPa | 0 mm | - | - | - |
| 1777702478 | 8.89° C | 100% | 1006.9 hPa | 0 mm | - | - | - |
| 1777702133 | 8.89° C | 100% | 1006.8 hPa | 0 mm | - | - | - |
| 1777701839 | 8.89° C | 100% | 1006.6 hPa | 0 mm | - | - | - |
| 1777701547 | 8.89° C | 100% | 1006.4 hPa | 0 mm | - | - | - |
| 1777701255 | 8.89° C | 100% | 1006.4 hPa | 0 mm | - | - | - |
| 1777700921 | 8.89° C | 100% | 1006.5 hPa | 0 mm | - | - | - |
| 1777700666 | 8.33° C | 100% | 1006.5 hPa | 0 mm | - | - | - |
| 1777700337 | 8.33° C | 100% | 1006.6 hPa | 0 mm | - | - | - |
| 1777700043 | 8.33° C | 100% | 1006.5 hPa | 0 mm | - | - | - |
| 1777699708 | 8.89° C | 100% | 1006.5 hPa | 0 mm | - | - | - |
| 1777699435 | 8.33° C | 100% | 1006.7 hPa | 0 mm | - | - | - |
| 1777698813 | 8.89° C | 100% | 1006.7 hPa | 0 mm | - | - | - |
| 1777698499 | 8.89° C | 100% | 1006.7 hPa | 0 mm | - | - | - |
| 1777694573 | 9.44° C | 100% | 1007.4 hPa | 0 mm | - | - | - |
| 1777693057 | 10° C | 100% | 1007.5 hPa | 0 mm | - | - | - |
| 1777692757 | 10° C | 100% | 1007.7 hPa | 0 mm | - | - | - |
| 1777692431 | 10° C | 100% | 1007.7 hPa | 0 mm | - | - | - |
| 1777691533 | 10° C | 100% | 1007.7 hPa | 0 mm | - | - | - |
* Rain since midnight (hover to see other rain measurements)
** Current wind speed in m/s (hover to see current wind gust speed)